"Pseudo-MPEC" for ST23K48

Created 2023 Dec 2 1:22:07 UT using Find_Orb

Click here for an explanation of pseudo-MPECs

 
 Astrometry: 
     ST23K48* C2023 11 15o\i7TAstrometryIUsIJa3mR2rtkKI.Ra-+OUlZPap?RKB-xk1:YU68
     ST23K48  C2023 11 15%lEQH?BtB+L*l13!WGQ?=KKBmYA_j5rI'=!P\w$X\redacted;*OU68
     ST23K48  C2023 11 15pO*MP\Fn-rjTQ1muFeE((XQ6w4@9=click6CGs]dAj\2ygwlcDX.U68
     ST23K48  C2023 11 15L`b^Y9N0MHID_Fl#tOA;t$MMkK?TIwO8$gqr;'yc*D+6Y%?!@m%HU68
     ST23K48 KB2023 11 15@JM:Yv7u%)TlTL-[KJ@oMK_`PYaJ@r!kE;Ju,y6SljYhereS_X._958
     ST23K48 KB2023 11 15KnEU'aYa',L+1P'P'.]NRq[2V92dR72xFm9ZUtfqGq)wx!'Zc?bo958
     ST23K48 KB2023 11 156C(l7nVi`CA`64@k/,=VX-VUijr.RforgDPIjArd2C`rZtm%)yv9958
     ST23K48 KB2023 11 181PGB_j2Wx?EvIHfj@@.Rdn%xirWLK.f]^g%DWkUU0+3#qWw7f*U4G15
     ST23K48 KB2023 11 18/-W'e*,sJexplanationi17H/n:e#$?.8BYo@J5JJ33[nRe%ij78G15

Station data:
(958) Observatoire de Dax  (N43.693324 W1.030390)  France.  Observer P.
   Dupouy. 0.32-m Schmidt-Cassegrain.
(G15) Magroforte Observatory, Alessandria  (N44.772005 E9.118300)  Italy.
   Observer A. De Pieri. 0.25-m f/6.7 Schmidt-Cassegrain + CCD.
(U68) JPL SynTrack Robotic Telescope, Auberry  (N37.070387 W119.412990)
   US/California.  Observers N. Saini, C. Zhai, R. Trahan, M. Zhan, M. Shao.
   0.28-m f/2.2 Schmidt + CCD.

Orbital elements:  ST23K48
   Perihelion 2023 Nov 5.84539 +/- 0.00677 TT = 20:17:21 (JD 2460254.34539)
Epoch 2023 Nov 18.0 TT = JDT 2460266.5   Earth MOID: 0.0105   Ma: 0.0003
M   8.35509467 +/- 0.0019           (J2000 ecliptic)             AutoNEOCP
n   0.68740138 +/- 0.000425         Peri.  347.16861 +/- 0.008
a   1.27153733 +/- 0.000524         Node    54.80720 +/- 0.00013
e   0.2157830 +/- 0.000318          Incl.    3.65112 +/- 0.0047
P   1.43/523.70d           H 28.45  G  0.15   U  7.5
q 0.99716111 +/- 7.23e-6    Q 1.54591354 +/- 0.00104
From 9 observations 2023 Nov. 15-18; mean residual 0".64
Residuals in arcseconds: 
231115 U68  .03-  .18-    231115 U68  .27-  .29+    231115 958  1.0+  .28+    
231115 U68  .01-  .06+    231115 958  .90-  1.2-    231118 G15  .98-  .78+    
231115 U68  .28+  .13-    231115 958  .06-  .86+    231118 G15  .98+  .77-    

Ephemerides (geocentric):
Date (UTC) HH   RA             Dec           delta  r     elong  mag " sig PA
---- --------  ------------   ------------  ------ ------ -----  --- --------
2023 12 02 01  06 30 03.505   +48 57 45.97  .03967 1.0184 144.0 22.9 7.50  56
2023 12 02 02  06 30 12.528   +48 58 41.55  .03976 1.0184 144.0 22.9 7.52  56
2023 12 02 03  06 30 21.505   +48 59 36.75  .03984 1.0185 144.0 22.9 7.53  56
2023 12 02 04  06 30 30.434   +49 00 31.58  .03993 1.0186 144.0 22.9 7.54  56
2023 12 02 05  06 30 39.318   +49 01 26.05  .04002 1.0186 144.0 22.9 7.56  57
2023 12 02 06  06 30 48.156   +49 02 20.14  .04011 1.0187 144.0 22.9 7.57  57
2023 12 02 07  06 30 56.948   +49 03 13.87  .04019 1.0188 144.0 22.9 7.58  57
2023 12 02 08  06 31 05.694   +49 04 07.24  .04028 1.0188 144.0 23.0 7.60  57
2023 12 02 09  06 31 14.395   +49 05 00.24  .04037 1.0189 144.0 23.0 7.61  57
2023 12 02 10  06 31 23.050   +49 05 52.89  .04046 1.0190 144.0 23.0 7.62  57
2023 12 02 11  06 31 31.661   +49 06 45.18  .04055 1.0190 144.0 23.0 7.64  57
2023 12 02 12  06 31 40.227   +49 07 37.12  .04063 1.0191 144.0 23.0 7.65  57
2023 12 02 13  06 31 48.748   +49 08 28.71  .04072 1.0192 144.0 23.0 7.66  57
2023 12 02 14  06 31 57.224   +49 09 19.95  .04081 1.0192 144.0 23.0 7.67  57
2023 12 02 15  06 32 05.657   +49 10 10.84  .04090 1.0193 144.0 23.0 7.69  57
2023 12 02 16  06 32 14.045   +49 11 01.39  .04098 1.0194 144.0 23.0 7.70  57
2023 12 02 17  06 32 22.390   +49 11 51.60  .04107 1.0194 144.0 23.0 7.71  57
2023 12 02 18  06 32 30.691   +49 12 41.46  .04116 1.0195 144.0 23.0 7.72  57
2023 12 02 19  06 32 38.948   +49 13 30.99  .04125 1.0196 144.0 23.0 7.74  57
2023 12 02 20  06 32 47.162   +49 14 20.18  .04134 1.0196 144.0 23.0 7.75  57
2023 12 02 21  06 32 55.334   +49 15 09.04  .04142 1.0197 144.0 23.0 7.76  57
2023 12 02 22  06 33 03.462   +49 15 57.57  .04151 1.0198 144.0 23.0 7.77  57
2023 12 02 23  06 33 11.547   +49 16 45.77  .04160 1.0198 144.0 23.0 7.79  57
2023 12 03 00  06 33 19.590   +49 17 33.64  .04169 1.0199 144.0 23.0 7.80  57
2023 12 03 01  06 33 27.591   +49 18 21.19  .04178 1.0200 144.0 23.0 7.81  57
2023 12 03 02  06 33 35.550   +49 19 08.41  .04187 1.0200 144.0 23.0 7.82  57
2023 12 03 03  06 33 43.466   +49 19 55.31  .04195 1.0201 144.0 23.0 7.83  57
2023 12 03 04  06 33 51.341   +49 20 41.89  .04204 1.0202 144.0 23.0 7.84  57
2023 12 03 05  06 33 59.175   +49 21 28.16  .04213 1.0202 144.0 23.0 7.86  57
2023 12 03 06  06 34 06.967   +49 22 14.11  .04222 1.0203 144.0 23.1 7.87  57
2023 12 03 07  06 34 14.717   +49 22 59.75  .04231 1.0204 144.0 23.1 7.88  57
2023 12 03 08  06 34 22.427   +49 23 45.07  .04239 1.0204 144.0 23.1 7.89  57
2023 12 03 09  06 34 30.096   +49 24 30.09  .04248 1.0205 144.0 23.1 7.90  57
2023 12 03 10  06 34 37.724   +49 25 14.80  .04257 1.0206 144.0 23.1 7.91  57
2023 12 03 11  06 34 45.311   +49 25 59.20  .04266 1.0206 144.0 23.1 7.93  57
2023 12 03 12  06 34 52.859   +49 26 43.30  .04275 1.0207 144.0 23.1 7.94  57
2023 12 03 13  06 35 00.366   +49 27 27.10  .04284 1.0208 144.0 23.1 7.95  58
2023 12 03 14  06 35 07.833   +49 28 10.60  .04293 1.0208 144.0 23.1 7.96  58
2023 12 03 15  06 35 15.260   +49 28 53.79  .04301 1.0209 144.0 23.1 7.97  58
2023 12 03 16  06 35 22.648   +49 29 36.70  .04310 1.0210 144.0 23.1 7.98  58
2023 12 03 17  06 35 29.996   +49 30 19.31  .04319 1.0210 144.0 23.1 7.99  58
2023 12 03 18  06 35 37.305   +49 31 01.62  .04328 1.0211 144.1 23.1 8.00  58
2023 12 03 19  06 35 44.575   +49 31 43.65  .04337 1.0212 144.1 23.1 8.01  58
2023 12 03 20  06 35 51.805   +49 32 25.38  .04346 1.0213 144.1 23.1 8.03  58
2023 12 03 21  06 35 58.997   +49 33 06.83  .04355 1.0213 144.1 23.1 8.04  58
2023 12 03 22  06 36 06.151   +49 33 47.99  .04363 1.0214 144.1 23.1 8.05  58
2023 12 03 23  06 36 13.266   +49 34 28.86  .04372 1.0215 144.1 23.1 8.06  58
2023 12 04 00  06 36 20.343   +49 35 09.46  .04381 1.0215 144.1 23.1 8.07  58